Dewpoint
3 1 2 4 4 5 5 3 2 1 -2 -3 -3 0 3 10 9 7 11 5 5 2 7 9 9 8 9 10 11 12 13 13 12 8 5 5 3 7 12 10 8 5 -10 -11 -3 2 4 10 11
3 2 5 4 5 6 5 3 2 0 -2 8 7 9 10 12 12 12 11 9 4 1 8 9 9 8 13 10 12 13 13 13 8 4 2 -1 6 9 12 12 11 6 -9 -11 -11 -5 -1 3 5
4 6 4 5 6 6 3 2 3 1 -0 1 5 9 12 12 12 11 11 10 9 1 7 8 9 12 12 11 11 14 13 11 8 3 -2 -1 8 10 13 12 12 2 -7 -6 -7 -8 -6 -3 -1
7 6 5 6 7 5 3 3 2 2 -2 -2 3 11 13 13 12 11 11 12 12 3 10 13 11 14 11 11 11 13 12 9 5 0 -5 10 10 10 13 10 8 0 -5 -2 -2 -3 -3 -2 -1
6 5 7 7 7 5 3 3 4 1 -1 -2 8 12 13 13 13 12 10 12 12 6 10 15 12 13 11 12 13 14 11 8 6 -2 -9 10 12 12 10 9 6 -0 -4 -2 -0 -0 -1 0 2
6 5 7 8 7 6 4 5 3 4 -1 4 11 13 13 13 13 13 12 12 12 8 9 13 12 12 11 13 14 12 12 8 3 -4 -10 5 10 7 7 5 3 1 -3 -2 -0 0 1 1 2
8 7 8 8 8 6 5 5 5 5 3 -1 11 13 13 14 14 14 14 13 10 8 10 11 14 13 12 13 13 12 12 11 7 -2 -9 -10 -6 4 5 3 3 1 -3 -1 -1 0 1 1 2
8 7 7 7 7 7 6 6 6 6 4 4 10 11 13 13 14 15 14 13 10 9 10 11 12 10 13 11 13 14 14 12 9 3 -5 -9 -9 -9 -7 -1 1 -1 -3 -1 -0 1 1 1 2
7 9 8 7 6 6 6 6 6 5 5 8 11 14 13 13 14 15 14 14 13 12 11 10 10 10 12 12 13 14 14 13 12 9 1 -6 -7 -7 -7 -6 -3 -1 -3 -1 0 0 -0 0 0
8 9 8 4 3 3 7 6 7 6 6 3 5 10 14 14 14 15 14 14 13 13 13 13 10 11 13 12 13 14 13 12 12 10 7 -0 -4 -6 -6 -4 -3 -2 -3 -0 1 1 1 1 1
9 9 6 4 4 4 7 7 7 7 6 5 7 5 10 14 13 13 14 14 13 14 14 13 13 12 12 11 11 11 9 12 11 10 7 6 3 -2 -5 -4 -4 -3 -2 -1 1 2 2 1 1
9 7 6 5 4 5 7 6 6 7 6 6 6 5 3 14 12 10 12 13 13 13 13 12 12 12 12 10 9 9 9 9 10 8 7 6 5 4 -2 -4 -3 -2 -1 -0 0 1 3 3 2
8 7 6 6 5 5 6 7 7 6 4 6 6 4 5 11 10 10 12 13 13 13 12 12 11 8 8 7 7 7 7 6 5 5 4 3 4 5 6 2 0 -0 1 5 5 4 2 1 3
6 6 6 7 7 7 7 8 7 5 5 6 5 4 5 11 10 9 12 13 13 13 13 12 11 11 11 10 9 7 8 8 9 7 3 6 4 6 7 8 5 6 7 8 8 8 8 7 4
6 6 8 8 8 8 7 8 9 4 5 6 6 5 4 10 10 9 10 12 12 12 12 12 12 12 11 11 11 10 10 10 9 8 8 9 8 9 10 10 9 9 9 9 9 10 10 9 9
6 6 8 7 8 7 5 8 5 5 7 7 6 5 4 5 10 10 11 11 12 13 12 12 12 12 12 12 12 11 11 11 10 10 10 10 11 11 11 10 10 10 10 10 10 10 11 11 11
5 7 6 8 8 8 6 7 6 6 7 7 5 4 3 2 2 8 10 9 10 10 10 11 12 12 13 13 13 12 12 12 12 12 12 11 11 11 11 11 11 11 11 12 12 11 11 11 11
7 5 6 6 7 8 7 3 5 7 5 4 4 3 3 3 0 -0 1 3 8 7 8 11 12 12 12 13 13 13 13 13 13 12 12 12 12 12 12 12 12 12 13 12 12 12 12 12 12
3 4 5 3 3 5 8 7 2 7 6 4 2 4 3 3 2 1 -1 -1 -1 1 4 6 9 10 12 12 12 13 12 12 12 12 12 12 12 12 12 13 13 13 13 12 12 12 12 12 12
3 4 4 2 3 5 4 5 3 2 5 5 2 2 3 2 2 0 -0 -1 -1 -1 -2 -0 4 6 7 9 12 13 11 11 12 12 12 12 12 12 12 13 13 13 12 12 11 11 12 11 11
3 4 3 4 3 1 3 4 3 2 1 1 2 3 2 1 -1 -1 -1 -2 -2 -2 -2 -2 -2 -0 3 8 9 10 9 7 8 10 12 12 13 13 12 12 12 12 12 11 11 10 11 11 9
5 1 1 3 4 6 2 7 3 3 2 1 1 1 0 -0 -1 -1 -2 -3 -3 -2 -2 -1 -1 -0 0 1 1 1 1 1 1 2 5 7 6 6 6 5 5 6 7 7 8 9 9 9 9
3 0 1 2 2 2 2 4 3 -1 2 2 0 0 0 -0 -0 -1 -2 -2 -3 -2 -2 -2 -2 -2 -2 -3 -3 -3 -3 -3 -3 -2 -1 -1 -0 -0 0 1 1 1 2 2 3 5 8 9 9
0 1 1 1 2 3 2 4 4 0 -2 -4 -4 -1 -1 -1 -1 -1 -2 -1 -1 -2 -2 -2 -2 -3 -3 -3 -3 -3 -3 -3 -3 -3 -3 -3 -3 -3 -3 -3 -3 -3 -3 -2 -0 4 10 10 10
1 3 5 6 5 4 0 3 2 -2 -3 -5 -5 -6 -5 -4 -2 -1 -2 -1 -0 -1 -1 -1 -1 -1 -1 -1 -1 -0 -0 -0 -0 -0 -0 -0 -0 0 0 -0 -1 -1 -1 0 2 4 5 8 10
2 2 3 5 5 4 1 4 2 -3 -4 -4 -4 -4 -4 -4 -5 -2 -2 -1 -0 0 1 1 1 1 1 1 1 1 1 1 0 0 -0 0 1 1 1 2 2 2 1 2 4 8 8 9 10
4 4 -1 1 -1 0 1 -0 -4 -5 -5 -4 -4 -5 -5 -4 -4 -2 0 1 2 2 2 2 2 1 2 2 2 2 2 1 0 -0 0 1 2 2 2 1 1 2 2 2 3 5 8 7 8
3 1 4 1 2 4 1 0 -0 -4 -4 -5 -4 -3 -3 -3 -1 2 3 3 2 2 2 2 2 2 2 2 2 2 2 1 0 0 1 2 2 2 2 1 0 0 1 1 2 2 3 4 6
5 5 4 2 1 2 3 2 -4 -4 -6 -6 -6 -3 -2 -0 2 3 3 3 3 3 2 2 2 2 2 1 1 1 1 1 1 1 2 2 2 2 2 1 0 0 0 0 0 1 1 2 3
4 4 3 3 3 1 1 2 -4 -6 -6 -6 -4 -2 -1 1 2 2 2 3 3 3 2 2 2 2 1 1 1 1 1 1 1 2 3 3 3 2 2 2 1 1 1 1 0 0 0 0 1
Wind_Speed
7 6 5 4 3 5 2 5 2 6 2 4 5 4 6 3 4 5 11 24 25 25 26 25 22 19 17 15 14 12 9 7 6 5 5 7 10 13 11 10 9 10 10 9 9 9 10 9 7
9 8 7 3 4 3 4 3 3 4 6 3 6 7 3 1 3 8 24 20 22 24 25 24 22 19 17 15 13 12 10 9 6 6 7 9 12 12 10 8 7 9 11 11 10 9 9 8 6
11 11 6 4 3 5 4 3 4 10 12 7 1 3 3 2 6 18 14 25 24 23 23 22 21 19 17 15 14 12 11 6 6 6 8 11 11 12 10 6 6 8 10 10 10 11 11 10 9
10 7 5 4 5 5 3 3 3 11 5 5 3 3 5 4 11 16 17 22 25 23 22 21 21 19 18 16 14 13 9 5 6 6 10 12 11 12 9 6 6 8 9 9 10 10 11 10 9
9 5 3 3 4 2 2 5 9 5 7 2 2 3 3 9 8 11 20 18 22 24 22 21 21 19 18 16 14 12 8 3 2 6 12 12 12 12 8 7 6 7 8 8 8 8 8 7 6
3 4 3 5 3 2 4 9 4 10 7 3 1 3 3 8 5 15 15 17 18 23 24 21 20 19 17 16 15 11 8 3 2 3 8 12 12 11 9 7 7 7 7 7 7 7 6 5 4
4 3 5 5 4 2 1 6 6 8 8 7 3 1 3 8 12 17 15 16 19 21 21 22 20 18 16 15 14 10 7 5 2 4 5 4 4 11 11 9 8 7 7 7 7 6 5 4 3
10 3 6 3 4 2 0 3 6 16 4 11 2 4 4 14 19 18 17 15 17 19 18 18 18 18 17 15 12 11 9 7 5 4 5 6 4 4 5 6 6 6 6 6 5 5 5 5 4
18 4 14 10 6 5 3 3 5 11 17 9 13 8 6 19 22 21 19 18 19 19 17 16 18 20 17 15 14 13 12 10 7 5 5 5 6 6 6 5 5 5 5 4 3 2 2 3 3
6 10 15 9 17 6 5 5 7 7 20 6 22 17 7 18 23 23 21 20 20 19 17 14 16 19 17 15 17 15 14 12 8 5 4 5 5 6 6 7 7 7 6 6 5 4 4 4 4
7 10 8 9 17 5 2 3 6 7 4 4 21 28 11 17 21 23 20 18 17 16 14 14 16 19 18 16 17 17 13 13 10 7 6 6 5 7 7 7 7 6 6 5 6 6 6 7 7
6 6 18 7 12 6 9 10 7 6 15 18 21 28 17 17 21 19 19 19 18 15 11 11 13 17 17 16 15 16 14 12 11 9 9 9 7 6 7 8 8 8 8 8 8 9 10 9 10
2 5 16 14 12 12 10 2 5 20 33 24 26 22 16 16 18 19 17 16 16 15 12 11 9 13 14 15 15 16 14 12 10 11 11 12 11 8 8 8 9 8 9 8 9 10 11 12 14
10 4 15 19 18 16 11 6 7 29 27 25 23 25 20 14 18 20 20 20 19 15 13 12 11 11 12 12 12 12 11 9 10 11 11 11 12 10 10 9 10 10 11 9 9 10 11 12 15
2 10 2 5 16 6 14 2 9 32 26 30 32 29 20 12 15 22 21 20 19 16 13 13 12 12 13 12 11 10 9 10 9 8 9 10 11 11 11 10 11 10 11 12 12 12 13 14 15
2 4 7 5 9 3 15 17 13 17 15 30 33 29 22 15 16 16 19 20 18 16 16 15 15 16 15 14 13 13 12 12 11 10 12 12 12 11 12 12 11 10 12 13 15 16 17 17 18
5 7 5 5 17 8 8 5 10 18 20 29 31 33 24 20 15 15 17 15 14 13 14 15 16 15 15 14 15 15 16 16 15 15 15 14 16 16 17 17 15 13 14 15 17 19 20 21 22
14 5 2 5 10 8 12 1 8 25 22 25 31 33 29 22 18 17 16 16 18 17 17 16 16 15 15 16 17 18 19 19 18 18 18 17 18 19 20 22 21 21 21 22 22 23 23 24 26
8 5 6 2 5 4 6 7 3 19 23 12 27 28 27 26 23 21 17 18 19 21 21 21 20 20 19 19 20 21 22 22 22 21 20 20 21 22 24 24 24 25 27 26 26 27 29 29 30
8 7 4 2 2 9 6 10 13 11 25 28 32 36 32 30 29 25 23 20 20 20 21 23 24 23 23 25 26 25 24 24 24 24 25 25 25 25 26 27 27 29 29 29 28 28 30 31 31
3 8 5 6 4 2 5 5 8 13 17 24 35 35 38 33 24 25 24 21 20 21 23 23 22 21 21 22 24 25 27 27 27 28 28 28 29 30 30 31 31 31 31 31 30 30 30 31 29
3 5 6 8 6 4 1 4 10 15 14 10 27 35 37 30 23 22 24 22 20 20 19 18 18 18 19 20 21 22 23 24 25 25 25 25 26 26 27 27 27 28 29 29 29 28 29 27 27
3 5 5 3 5 4 1 0 6 5 13 27 24 26 33 34 27 21 24 22 21 20 19 18 17 17 17 19 20 21 23 24 24 25 26 28 29 31 33 32 31 30 31 31 29 29 28 27 25
8 6 7 5 3 2 6 6 7 7 8 7 8 30 38 38 29 27 24 24 23 22 20 18 17 16 16 16 17 17 17 17 17 18 18 19 19 19 21 22 24 25 26 27 27 27 28 27 25
3 5 2 2 1 4 4 5 10 1 4 5 9 14 16 25 29 30 31 29 25 22 19 17 15 14 14 15 15 15 16 17 17 18 19 20 20 21 21 22 22 21 21 21 22 23 26 27 25
4 4 4 5 4 3 3 7 6 5 6 10 21 24 20 15 19 29 32 31 27 22 17 15 13 13 13 14 14 15 17 17 18 18 18 18 18 18 19 20 20 20 20 19 18 17 18 22 21
3 2 3 6 3 3 4 7 8 8 7 9 17 16 19 18 20 29 32 29 25 20 15 12 12 12 12 13 14 16 17 17 16 16 16 16 15 16 17 17 18 18 18 17 16 16 17 21 20
3 6 3 3 3 4 4 5 6 7 10 8 8 13 13 17 24 30 29 26 21 17 14 12 12 12 13 14 15 16 15 15 14 14 14 13 13 14 14 14 14 13 14 14 14 15 15 16 16
2 2 4 3 4 4 2 5 6 5 7 10 10 12 14 22 28 27 24 21 18 16 14 12 12 13 14 15 16 15 14 13 13 12 13 12 12 11 11 10 9 9 9 9 10 10 10 10 10
3 5 5 4 5 1 2 8 4 6 8 12 12 7 14 23 25 25 23 21 19 16 13 12 13 14 15 16 15 14 13 13 13 13 13 13 13 11 11 11 10 10 9 8 7 7 7 7 8
Wind_Direction
184 187 168 149 79 68 229 255 270 305 280 249 154 164 177 106 162 197 161 165 164 164 162 165 165 163 165 163 160 155 149 149 131 113 101 115 116 128 121 109 88 60 63 86 111 132 148 150 150
178 182 163 132 99 111 259 253 280 277 311 123 109 115 105 134 124 142 153 157 165 164 161 165 166 163 162 164 160 156 157 163 135 107 104 113 123 130 129 122 83 60 72 84 97 115 131 144 144
175 177 149 111 121 172 202 157 295 304 309 230 315 77 101 99 155 154 165 160 161 170 163 165 165 163 164 165 163 162 169 168 134 104 114 122 126 135 130 127 88 72 82 87 92 99 110 121 119
166 145 92 110 186 240 189 334 293 331 24 233 253 55 98 100 121 157 162 165 162 168 165 165 165 169 166 166 164 170 173 162 128 127 133 123 129 141 147 126 103 91 92 94 94 96 104 108 106
174 159 106 124 195 250 324 315 339 340 299 305 177 205 93 149 133 159 164 164 167 169 170 171 171 172 170 167 162 175 178 170 129 153 150 129 136 142 147 139 119 106 106 107 103 101 106 108 103
189 139 111 173 215 276 291 356 14 4 331 347 135 144 135 164 157 153 161 162 172 174 173 175 176 178 176 173 175 184 187 163 130 169 165 158 154 159 166 148 141 128 121 123 116 111 114 115 101
151 99 147 140 161 321 157 21 54 342 322 18 107 4 170 160 159 155 155 162 170 178 178 178 180 184 183 182 187 191 196 198 181 157 160 197 202 173 179 174 163 152 144 143 143 140 143 149 156
237 74 140 185 157 252 48 80 32 12 329 344 344 243 184 168 158 158 154 156 166 180 184 183 187 191 190 190 191 189 198 218 196 164 168 166 186 214 230 195 190 172 163 162 163 168 174 182 201
190 162 221 208 203 184 150 68 16 356 346 49 10 332 297 169 163 165 164 166 173 181 184 188 192 189 194 191 195 205 208 223 224 198 185 185 192 195 189 205 214 193 183 181 192 221 249 272 283
157 203 212 236 232 211 91 68 4 10 345 13 13 26 143 178 172 175 176 174 174 175 179 184 188 195 199 200 198 210 218 221 226 224 219 209 213 217 212 203 203 208 202 207 213 224 243 256 266
185 208 188 184 236 182 14 13 6 22 359 42 347 339 326 195 188 187 183 186 178 178 187 191 196 202 209 216 216 228 227 224 232 239 240 241 242 240 236 231 229 229 232 240 251 260 265 269 276
174 227 197 232 212 162 202 264 263 270 257 287 313 329 313 211 205 200 194 186 188 188 195 195 200 203 209 221 226 228 233 237 240 247 253 258 259 260 244 242 240 241 248 252 260 269 270 274 276
184 174 193 195 187 199 162 200 283 265 257 277 300 319 323 233 216 218 205 198 197 199 199 203 202 201 209 217 221 224 230 239 249 253 255 258 258 265 261 251 248 250 256 269 275 276 276 276 277
192 223 181 176 180 180 185 219 237 258 262 284 292 312 325 244 227 227 211 205 207 208 211 211 208 201 207 212 218 220 225 233 249 255 257 261 254 257 260 263 258 255 262 268 279 280 282 281 279
98 185 149 179 160 162 137 201 229 243 257 283 287 298 309 265 248 228 226 219 219 217 218 228 230 225 224 223 224 226 231 238 250 256 252 261 255 254 260 264 266 269 270 269 274 282 284 285 288
120 88 181 208 163 171 150 236 223 241 272 272 278 284 295 275 241 240 235 234 234 231 231 234 234 233 236 238 241 244 245 251 256 258 256 258 261 262 264 264 266 273 274 275 275 279 282 285 288
211 171 174 160 192 152 181 228 180 193 221 264 274 276 275 278 245 224 224 223 220 226 230 236 238 242 241 243 248 251 251 254 258 260 262 260 262 265 268 270 273 273 274 276 280 282 283 288 290
185 130 151 137 197 172 199 21 182 185 196 233 259 265 266 260 255 240 223 219 215 217 220 228 231 239 245 246 247 249 252 255 257 259 262 264 263 265 267 271 274 276 277 278 279 284 287 289 291
128 119 154 178 176 165 210 229 209 187 199 200 259 255 256 251 252 264 244 232 226 227 226 227 229 234 236 241 247 251 255 256 258 259 261 266 269 268 266 269 273 275 276 279 281 281 281 284 287
126 137 174 85 104 166 175 212 245 194 212 214 230 238 249 252 268 253 245 239 237 235 228 228 230 235 240 243 244 246 250 251 253 255 257 259 261 264 266 269 271 272 273 276 276 277 279 281 282
46 145 158 148 98 56 123 273 235 239 209 219 238 236 243 258 264 245 233 233 237 231 227 228 229 232 237 239 243 246 249 253 256 258 258 258 259 261 263 268 269 270 271 271 271 272 274 278 282
110 158 126 133 127 187 209 262 231 232 250 219 231 232 238 241 252 233 222 216 221 221 220 221 225 231 238 242 247 253 258 260 260 259 259 259 262 265 267 268 268 268 268 269 271 272 273 273 275
136 131 123 101 98 109 281 255 260 160 229 237 239 245 251 250 241 234 223 212 211 215 221 227 231 235 241 247 251 256 260 264 267 266 263 262 263 265 267 269 269 270 270 271 270 268 267 268 270
150 87 56 57 84 355 219 175 247 199 218 256 209 235 242 243 238 229 225 211 207 209 216 225 235 246 253 258 261 262 263 265 268 272 274 273 270 268 268 270 271 273 273 272 268 263 261 263 270
102 103 45 54 11 222 315 229 250 244 243 229 265 252 241 243 236 219 209 205 205 206 213 223 235 247 256 261 265 269 273 274 275 275 276 276 277 275 274 274 273 273 275 273 271 267 263 264 264
157 134 151 171 187 229 320 237 246 229 296 259 257 260 264 254 232 213 203 202 204 207 214 223 233 243 250 259 270 278 281 282 282 281 281 280 281 281 279 277 276 274 273 273 267 262 265 260 259
185 151 153 109 57 62 230 295 290 287 276 270 267 268 263 242 215 200 192 194 197 202 209 223 236 249 260 268 275 280 282 282 281 280 280 281 284 287 288 285 280 276 271 268 265 260 254 256 261
112 154 95 13 131 249 272 269 238 300 301 315 278 259 250 208 188 183 185 189 194 202 211 226 244 258 270 279 282 283 282 280 277 275 276 280 285 291 290 287 285 280 274 270 266 263 261 259 253
79 82 73 122 144 185 287 258 214 223 282 282 282 257 217 192 180 181 185 191 199 205 216 233 252 268 278 284 285 283 280 275 270 267 270 276 283 290 284 279 282 284 283 278 272 269 265 262 259
135 165 164 149 226 250 127 264 253 251 268 285 297 237 193 185 185 189 193 199 205 214 228 244 261 274 282 285 284 280 273 265 261 261 265 272 279 281 277 271 269 272 274 277 276 274 273 273 271
Height
1520 1522 1523 1525 1536 1540 1544 1536 1528 1525 1523 1518 1517 1517 1519 1521 1523 1536 1523 1527 1530 1534 1537 1541 1544 1547 1550 1552 1554 1555 1556 1557 1557 1558 1558 1559 1560 1560 1561 1562 1563 1563 1562 1562 1562 1563 1565 1567 1568
1518 1520 1523 1524 1541 1549 1544 1530 1527 1524 1522 1519 1518 1518 1519 1521 1521 1521 1524 1526 1531 1534 1537 1541 1544 1547 1550 1553 1554 1556 1557 1557 1557 1558 1559 1560 1561 1562 1563 1564 1565 1565 1565 1565 1565 1565 1566 1568 1569
1517 1519 1521 1528 1542 1545 1539 1527 1526 1522 1519 1520 1518 1518 1519 1520 1521 1523 1525 1526 1530 1535 1538 1542 1545 1548 1550 1553 1555 1556 1557 1558 1558 1559 1560 1561 1562 1564 1565 1566 1567 1567 1567 1567 1567 1568 1568 1569 1571
1516 1519 1522 1530 1537 1530 1527 1526 1524 1522 1517 1520 1518 1519 1520 1520 1521 1524 1526 1529 1531 1535 1539 1543 1545 1548 1551 1553 1555 1556 1558 1559 1559 1560 1561 1562 1564 1566 1566 1568 1568 1569 1569 1569 1570 1570 1570 1571 1572
1515 1515 1525 1532 1530 1527 1525 1524 1523 1523 1520 1519 1520 1519 1520 1521 1522 1524 1526 1531 1534 1536 1540 1544 1546 1549 1551 1554 1556 1557 1559 1560 1561 1561 1562 1563 1565 1566 1568 1569 1570 1570 1570 1571 1572 1572 1572 1573 1574
1514 1512 1526 1533 1529 1525 1524 1523 1522 1523 1521 1520 1521 1520 1521 1521 1524 1525 1528 1531 1535 1537 1540 1544 1547 1550 1552 1554 1556 1558 1560 1561 1562 1563 1564 1564 1565 1566 1568 1570 1570 1571 1572 1572 1573 1573 1574 1574 1574
1511 1513 1524 1525 1526 1525 1522 1521 1524 1525 1523 1522 1523 1524 1522 1522 1525 1527 1529 1531 1535 1539 1541 1543 1547 1550 1552 1555 1556 1558 1560 1562 1563 1564 1565 1566 1566 1566 1568 1569 1571 1571 1572 1573 1574 1575 1575 1575 1576
1509 1510 1522 1522 1523 1525 1522 1521 1523 1524 1524 1522 1523 1524 1522 1522 1525 1528 1530 1533 1535 1540 1542 1544 1547 1550 1552 1554 1557 1558 1560 1562 1563 1564 1565 1566 1567 1569 1570 1570 1571 1572 1573 1574 1575 1575 1575 1575 1576
1509 1518 1519 1519 1520 1520 1522 1522 1523 1524 1526 1522 1525 1525 1523 1523 1525 1528 1530 1533 1535 1539 1542 1545 1546 1549 1552 1554 1557 1558 1560 1562 1563 1564 1565 1566 1567 1568 1569 1571 1572 1573 1574 1575 1576 1576 1577 1577 1578
1504 1511 1510 1509 1512 1513 1521 1523 1524 1525 1525 1524 1524 1527 1526 1528 1525 1527 1530 1532 1535 1538 1542 1544 1546 1549 1551 1554 1556 1557 1559 1561 1563 1564 1565 1566 1567 1568 1569 1570 1571 1572 1573 1574 1575 1575 1576 1577 1577
1503 1504 1504 1507 1511 1516 1523 1525 1525 1526 1528 1527 1528 1528 1530 1529 1528 1528 1531 1534 1536 1539 1541 1543 1545 1548 1551 1553 1556 1557 1558 1560 1562 1564 1565 1566 1567 1568 1569 1570 1571 1572 1573 1574 1574 1575 1576 1576 1576
1503 1501 1506 1507 1511 1514 1520 1523 1525 1526 1525 1527 1529 1529 1528 1528 1529 1530 1532 1533 1535 1538 1541 1542 1544 1546 1549 1552 1554 1556 1558 1559 1561 1563 1564 1565 1566 1567 1568 1569 1570 1571 1571 1572 1573 1574 1575 1575 1575
1500 1501 1506 1508 1511 1515 1519 1523 1526 1521 1522 1527 1528 1528 1526 1527 1530 1531 1532 1535 1536 1537 1539 1541 1543 1545 1548 1550 1553 1554 1556 1558 1560 1561 1562 1564 1565 1566 1567 1568 1569 1570 1570 1571 1571 1572 1572 1573 1574
1498 1501 1502 1506 1509 1515 1521 1524 1528 1516 1522 1525 1526 1525 1525 1526 1529 1531 1530 1532 1533 1537 1538 1541 1543 1545 1547 1549 1551 1553 1555 1557 1558 1559 1560 1561 1563 1564 1565 1566 1567 1568 1569 1570 1570 1570 1570 1570 1571
1499 1503 1507 1508 1509 1513 1519 1525 1519 1515 1523 1523 1525 1526 1525 1525 1527 1528 1530 1530 1532 1535 1538 1540 1542 1544 1546 1548 1551 1552 1554 1555 1556 1558 1559 1559 1560 1562 1563 1564 1565 1567 1567 1568 1568 1568 1568 1568 1569
1504 1506 1510 1509 1510 1514 1517 1515 1515 1517 1522 1521 1523 1523 1523 1523 1525 1527 1528 1529 1531 1533 1536 1539 1541 1543 1545 1547 1549 1551 1552 1553 1555 1556 1557 1558 1559 1560 1561 1561 1562 1564 1565 1565 1565 1566 1566 1566 1566
1505 1507 1511 1511 1508 1510 1513 1514 1510 1516 1521 1519 1520 1521 1522 1523 1523 1525 1527 1528 1529 1531 1533 1536 1538 1540 1542 1545 1547 1548 1550 1551 1552 1553 1554 1555 1556 1557 1558 1558 1560 1561 1562 1562 1562 1562 1563 1562 1562
1493 1507 1505 1508 1507 1510 1511 1510 1507 1510 1517 1518 1518 1519 1519 1520 1521 1524 1524 1526 1527 1529 1531 1533 1535 1537 1538 1541 1543 1544 1546 1547 1549 1550 1551 1552 1553 1554 1554 1554 1556 1557 1558 1558 1558 1558 1558 1558 1557
1498 1502 1506 1503 1502 1508 1511 1511 1510 1513 1516 1516 1518 1514 1514 1515 1517 1521 1522 1523 1525 1527 1529 1530 1531 1533 1535 1538 1539 1540 1541 1543 1545 1546 1547 1548 1549 1549 1549 1550 1551 1551 1552 1553 1553 1553 1553 1552 1553
1495 1503 1507 1502 1502 1507 1510 1512 1511 1511 1508 1508 1507 1507 1507 1509 1511 1515 1517 1519 1521 1523 1525 1527 1528 1530 1532 1534 1535 1537 1538 1539 1540 1542 1543 1544 1544 1544 1544 1544 1545 1545 1546 1547 1547 1547 1546 1546 1547
1498 1501 1506 1508 1507 1509 1512 1513 1510 1501 1503 1505 1503 1503 1502 1503 1507 1510 1512 1515 1516 1518 1519 1522 1524 1527 1528 1530 1532 1533 1534 1535 1535 1536 1537 1538 1539 1539 1538 1538 1539 1539 1539 1539 1540 1541 1540 1540 1540
1498 1497 1500 1506 1509 1523 1511 1522 1503 1496 1498 1499 1496 1494 1496 1502 1504 1505 1508 1510 1512 1514 1516 1518 1520 1523 1525 1527 1528 1528 1529 1530 1530 1531 1532 1532 1532 1532 1532 1532 1532 1532 1532 1532 1533 1534 1535 1535 1533
1496 1497 1501 1507 1515 1516 1516 1522 1497 1495 1497 1482 1485 1489 1491 1495 1498 1501 1505 1507 1509 1511 1513 1515 1517 1520 1522 1523 1524 1524 1525 1525 1525 1525 1526 1526 1526 1527 1526 1525 1525 1525 1525 1525 1527 1528 1528 1529 1529
1495 1501 1507 1513 1518 1538 1520 1520 1493 1493 1486 1482 1481 1482 1483 1487 1490 1495 1501 1504 1506 1508 1510 1512 1514 1515 1517 1518 1519 1520 1520 1520 1520 1520 1520 1520 1520 1520 1520 1519 1518 1518 1517 1518 1519 1520 1521 1523 1523
1493 1502 1528 1524 1534 1531 1522 1519 1485 1483 1480 1478 1476 1477 1478 1480 1482 1488 1492 1499 1502 1504 1507 1509 1510 1512 1513 1514 1514 1515 1515 1515 1515 1515 1515 1515 1514 1514 1514 1514 1514 1513 1512 1512 1513 1514 1515 1516 1517
1496 1499 1520 1518 1530 1522 1523 1511 1489 1477 1474 1473 1473 1473 1473 1474 1476 1481 1487 1493 1499 1501 1504 1506 1508 1509 1510 1510 1511 1511 1511 1511 1511 1510 1510 1509 1509 1510 1509 1509 1508 1508 1507 1507 1508 1509 1510 1510 1511
1499 1504 1506 1525 1534 1545 1517 1502 1483 1472 1471 1473 1471 1469 1468 1469 1471 1477 1484 1491 1495 1498 1500 1503 1505 1506 1507 1507 1507 1508 1508 1507 1507 1506 1505 1505 1505 1505 1505 1504 1503 1503 1503 1503 1503 1504 1504 1505 1505
1495 1501 1511 1527 1537 1524 1511 1509 1492 1476 1471 1469 1467 1466 1465 1468 1472 1478 1484 1489 1493 1495 1497 1500 1502 1503 1504 1503 1502 1503 1503 1503 1503 1502 1501 1501 1501 1501 1501 1501 1499 1499 1498 1498 1498 1498 1498 1499 1500
1500 1505 1505 1508 1519 1523 1515 1497 1479 1474 1471 1468 1465 1462 1463 1468 1472 1478 1484 1487 1490 1492 1494 1496 1498 1498 1499 1499 1498 1498 1498 1499 1498 1498 1498 1498 1497 1497 1498 1498 1497 1496 1496 1495 1494 1494 1494 1494 1495
1493 1498 1500 1514 1515 1524 1526 1485 1468 1470 1469 1465 1461 1462 1464 1470 1475 1479 1482 1485 1488 1490 1492 1492 1493 1493 1494 1495 1494 1493 1493 1494 1494 1495 1494 1494 1494 1494 1494 1494 1494 1494 1493 1493 1492 1492 1492 1491 1491